Weather History for Taunton, MA

Change the Weather History Date:

Sunday, September 22, 2013

  Actual Average Record
Temperature  
Mean Temperature 64 °F -  
Max Temperature 73 °F 71 °F 89 °F (1980)
Min Temperature 53 °F 49 °F 28 °F (1962)
Degree Days  
Heating Degree Days 2    
Growing Degree Days 14 (Base 50)    
Moisture  
Dew Point 60 °F    
Average Humidity 79    
Maximum Humidity 94    
Minimum Humidity 49    
Precipitation  
Precipitation 0.50 in - - ()
Sea Level Pressure  
Sea Level Pressure 29.69 in    
Wind  
Wind Speed 8 mph (WSW)    
Max Wind Speed 14 mph    
Max Gust Speed 26 mph    
Visibility 8 miles    
Events Rain    
Averages and records for this station are not official NWS values.
T = Trace of Precipitation, MM = Missing Value Source: NWS Daily Summary

Daily Weather History Graph

Daily Weather History Graph

Search for Another Location

Airport:

Trip Planner

Search our weather history database for the weather conditions in past years. The results will help you decide how hot, cold, wet, or windy it might be!

Date:

Astronomy

Sep. 22, 2013 Rise Set
Actual Time 6:31 AM EDT 6:40 PM EDT
Civil Twilight 6:03 AM EDT 7:08 PM EDT
Nautical Twilight 5:31 AM EDT 7:41 PM EDT
Astronomical Twilight 4:57 AM EDT 8:14 PM EDT
Moon 8:25 PM EDT (9/22) 9:52 AM EDT (9/22)
Length of Visible Light 13h 04m
Length of Day
12h 09m
Waning Gibbous, 89% of the Moon is Illuminated
Sep 22
Waning Gibbous
Sep 26
Last Quarter
Oct 4
New
Oct 11
First Quarter
Oct 18
Full

Hourly Weather History & Observations

Time (EDT) Temp. Dew Point Humidity Pressure Visibility Wind Dir Wind Speed Gust Speed Precip Events Conditions
12:52 AM 71.1 °F 64.0 °F 78% 29.73 in 10.0 mi South 8.1 mph 18.4 mph N/A   Mostly Cloudy
1:52 AM 71.1 °F 64.9 °F 81% 29.70 in 9.0 mi South 11.5 mph 18.4 mph 0.00 in   Overcast
2:52 AM 72.0 °F 64.9 °F 78% 29.68 in 10.0 mi South 9.2 mph 26.5 mph 0.00 in   Overcast
3:52 AM 72.0 °F 64.9 °F 78% 29.66 in 10.0 mi South 10.4 mph 19.6 mph N/A   Scattered Clouds
4:52 AM 72.0 °F 64.9 °F 78% 29.65 in 10.0 mi South 12.7 mph 18.4 mph N/A   Mostly Cloudy
5:52 AM 72.0 °F 66.0 °F 81% 29.64 in 10.0 mi South 11.5 mph 20.7 mph 0.00 in Rain Light Rain
6:32 AM 69.1 °F 66.0 °F 90% 29.66 in 2.0 mi SW 13.8 mph 23.0 mph 0.17 in Rain Heavy Rain
6:38 AM 68.0 °F 64.9 °F 90% 29.66 in 1.5 mi SSW 9.2 mph 23.0 mph 0.26 in Rain Heavy Rain
6:47 AM 68.0 °F 66.2 °F 94% 29.66 in 3.0 mi SSW 8.1 mph 17.3 mph 0.29 in Rain Rain
6:52 AM 68.0 °F 66.0 °F 93% 29.66 in 2.5 mi SSW 9.2 mph - 0.31 in Rain Rain
6:57 AM 68.0 °F 66.0 °F 93% 29.66 in 2.5 mi SSW 8.1 mph - 0.02 in Rain Rain
7:00 AM 68.0 °F 66.0 °F 93% 29.66 in 3.0 mi SSW 9.2 mph - 0.03 in Rain Rain
7:18 AM 68.0 °F 64.9 °F 90% 29.67 in 2.0 mi SW 5.8 mph - 0.09 in Rain Heavy Rain
7:25 AM 66.9 °F 64.9 °F 93% 29.67 in 1.8 mi SSW 6.9 mph - 0.12 in Rain Heavy Rain
7:31 AM 66.9 °F 64.9 °F 93% 29.67 in 3.0 mi Variable 4.6 mph - 0.13 in Rain Light Rain
7:52 AM 66.9 °F 64.9 °F 93% 29.66 in 6.0 mi SSW 5.8 mph - 0.14 in Rain Light Rain
8:18 AM 66.9 °F 64.9 °F 93% 29.67 in 5.0 mi SW 4.6 mph - 0.02 in Rain Light Rain
8:25 AM 66.9 °F 64.9 °F 93% 29.67 in 4.0 mi West 5.8 mph - 0.03 in Rain Rain
8:43 AM 64.0 °F 60.1 °F 87% 29.67 in 6.0 mi WNW 6.9 mph - 0.05 in Rain Light Rain
8:52 AM 64.0 °F 61.0 °F 90% 29.68 in 10.0 mi WNW 4.6 mph - 0.05 in   Overcast
9:17 AM 64.0 °F 61.0 °F 90% 29.69 in 10.0 mi Calm Calm - N/A   Mostly Cloudy
9:52 AM 64.0 °F 61.0 °F 90% 29.69 in 10.0 mi Calm Calm - N/A   Overcast
10:52 AM 66.9 °F 62.1 °F 84% 29.69 in 10.0 mi WNW 5.8 mph - N/A   Overcast
11:14 AM 66.0 °F 61.0 °F 84% 29.69 in 10.0 mi WNW 6.9 mph - N/A   Overcast
11:42 AM 66.0 °F 60.1 °F 81% 29.69 in 10.0 mi West 6.9 mph - N/A   Overcast
11:52 AM 68.0 °F 61.0 °F 78% 29.68 in 10.0 mi NW 8.1 mph - N/A   Overcast
12:20 PM 68.0 °F 60.1 °F 76% 29.69 in 10.0 mi Variable 6.9 mph - N/A   Overcast
12:28 PM 68.0 °F 59.0 °F 73% 29.69 in 10.0 mi Variable 3.5 mph - N/A   Overcast
12:37 PM 70.0 °F 59.0 °F 68% 29.69 in 10.0 mi West 8.1 mph - N/A   Overcast
12:52 PM 70.0 °F 57.9 °F 65% 29.68 in 10.0 mi West 6.9 mph - N/A   Overcast
1:52 PM 71.1 °F 57.0 °F 61% 29.66 in 10.0 mi West 9.2 mph - N/A   Scattered Clouds
2:52 PM 71.1 °F 55.9 °F 59% 29.66 in 10.0 mi West 8.1 mph - N/A   Mostly Cloudy
3:52 PM 71.1 °F 53.1 °F 53% 29.68 in 10.0 mi West 10.4 mph - N/A   Overcast
4:52 PM 70.0 °F 51.1 °F 51% 29.69 in 10.0 mi WNW 8.1 mph - N/A   Mostly Cloudy
5:52 PM 66.9 °F 46.9 °F 49% 29.70 in 10.0 mi WNW 8.1 mph - N/A   Clear
6:52 PM 63.0 °F 48.0 °F 58% 29.73 in 10.0 mi WNW 6.9 mph - N/A   Clear
7:52 PM 60.1 °F 48.0 °F 64% 29.76 in 10.0 mi West 4.6 mph - N/A   Clear
8:52 PM 60.1 °F 46.9 °F 62% 29.78 in 10.0 mi Variable 4.6 mph - N/A   Overcast
9:52 PM 57.9 °F 46.9 °F 67% 29.80 in 10.0 mi WNW 4.6 mph - N/A   Overcast
10:52 PM 55.0 °F 46.0 °F 72% 29.82 in 10.0 mi WNW 5.8 mph - N/A   Clear
11:52 PM 53.1 °F 46.0 °F 77% 29.83 in 10.0 mi Calm Calm - N/A   Clear